Location: Huntsville
(41.2590°N, 111.7678°W)
Time: 20:13:45
(UTC+00:00)

Explorer 7 - Pass Details

Date: 20 June 2021
Orbit: 484 x 676 km, 50.3° (Epoch: 30 July)

Event Time Altitude Azimuth Distance (km) Brightness Sun altitude
Rises 06:15:03 0° 276° (W) 3,021 10.9 -23.1°
Reaches altitude 10° 06:17:41 10° 286° (WNW) 2,099 10.2 -23.2°
Maximum altitude 06:21:59 30° 348° (NNW) 1,171 9.1 -23.5°
Drops below altitude 10° 06:26:09 10° 51° (NE) 2,035 10.0 -23.7°
Sets 06:28:40 0° 62° (ENE) 2,914 10.7 -23.8°
